VOZ1845 YPPH-YPPD

Flight info

Callsign VOZ1845
Flight time 1h 54m
Altitude 35000
Route AVNEX Y15 ESDEG Y44 PD
Aircraft B738/M-VGDW/C

Departure

Time 2026-05-04 07:42
Airport Perth International Airport (YPPH)

Arrival

Time 2026-05-04 09:37
Airport Port Hedland International Airport (YPPD)
Time Latitude Longitude Altitude Speed Heading
2026-05-04 07:20 -31.94166 115.97056 65 ft 0 kts 14°
2026-05-04 07:34 -31.94168 115.97056 65 ft 2 kts 14°
2026-05-04 07:34 -31.94193 115.97047 57 ft 4 kts 17°
2026-05-04 07:34 -31.94219 115.97039 62 ft 4 kts 11°
2026-05-04 07:35 -31.94244 115.97038 60 ft 4 kts 338°
2026-05-04 07:35 -31.94249 115.97040 60 ft 0 kts 332°
2026-05-04 07:38 -31.94236 115.97031 62 ft 4 kts 329°
2026-05-04 07:38 -31.94217 115.96993 65 ft 7 kts 285°
2026-05-04 07:38 -31.94203 115.96927 58 ft 9 kts 284°
2026-05-04 07:38 -31.94189 115.96856 64 ft 9 kts 274°
2026-05-04 07:39 -31.94221 115.96803 65 ft 9 kts 200°
2026-05-04 07:39 -31.94277 115.96785 61 ft 8 kts 195°
2026-05-04 07:39 -31.94315 115.96774 58 ft 9 kts 194°
2026-05-04 07:39 -31.94407 115.96748 60 ft 18 kts 193°
2026-05-04 07:40 -31.94544 115.96708 59 ft 22 kts 194°
2026-05-04 07:40 -31.94691 115.96664 62 ft 21 kts 194°
2026-05-04 07:40 -31.94832 115.96623 63 ft 21 kts 194°
2026-05-04 07:40 -31.94970 115.96583 62 ft 20 kts 193°
2026-05-04 07:41 -31.95102 115.96541 62 ft 19 kts 214°
2026-05-04 07:41 -31.95109 115.96399 58 ft 18 kts 285°
2026-05-04 07:41 -31.95071 115.96258 61 ft 18 kts 304°
2026-05-04 07:41 -31.94951 115.96237 59 ft 31 kts 14°
2026-05-04 07:42 -31.94487 115.96372 60 ft 103 kts 14°
2026-05-04 07:42 -31.93580 115.96637 56 ft 162 kts 16°
2026-05-04 07:42 -31.92437 115.96980 521 ft 178 kts 18°
2026-05-04 07:42 -31.91212 115.97364 1366 ft 178 kts 17°
2026-05-04 07:43 -31.89971 115.97704 2076 ft 196 kts 15°
2026-05-04 07:43 -31.88544 115.97952 2550 ft 215 kts 359°
2026-05-04 07:43 -31.87143 115.97378 3243 ft 221 kts 325°
2026-05-04 07:43 -31.86183 115.95898 3579 ft 242 kts 288°
2026-05-04 07:44 -31.85815 115.93905 4021 ft 260 kts 279°
2026-05-04 07:44 -31.85547 115.91708 4543 ft 276 kts 277°
2026-05-04 07:44 -31.85288 115.89447 5452 ft 278 kts 277°
2026-05-04 07:44 -31.85024 115.87190 6211 ft 284 kts 278°
2026-05-04 07:45 -31.84743 115.84858 6980 ft 290 kts 278°
2026-05-04 07:45 -31.84451 115.82492 7794 ft 292 kts 278°
2026-05-04 07:45 -31.84158 115.80150 8613 ft 293 kts 278°
2026-05-04 07:45 -31.83854 115.77750 9426 ft 296 kts 278°
2026-05-04 07:46 -31.83548 115.75337 10223 ft 300 kts 278°
2026-05-04 07:46 -31.83271 115.72863 10553 ft 320 kts 271°
2026-05-04 07:46 -31.83642 115.70201 10735 ft 340 kts 251°
2026-05-04 07:46 -31.84396 115.67464 10914 ft 362 kts 250°
2026-05-04 07:47 -31.85211 115.64598 11360 ft 372 kts 251°
2026-05-04 07:47 -31.85635 115.61614 11964 ft 379 kts 272°
2026-05-04 07:47 -31.84976 115.58614 12662 ft 382 kts 296°
2026-05-04 07:49 -31.71839 115.42285 16960 ft 404 kts 314°
2026-05-04 07:49 -31.69846 115.39932 17535 ft 407 kts 317°
2026-05-04 07:49 -31.67448 115.38115 18043 ft 412 kts 338°
2026-05-04 07:50 -31.64674 115.37384 18643 ft 414 kts 357°
2026-05-04 07:50 -31.61800 115.37701 19074 ft 418 kts 15°
2026-05-04 07:50 -31.59113 115.39023 19541 ft 420 kts 27°
2026-05-04 07:50 -31.56514 115.40617 20031 ft 423 kts 28°
2026-05-04 07:51 -31.53934 115.42237 20460 ft 427 kts 28°
2026-05-04 07:51 -31.51300 115.43885 20978 ft 429 kts 28°
2026-05-04 07:51 -31.48643 115.45530 21459 ft 431 kts 28°
2026-05-04 07:51 -31.45995 115.47150 21894 ft 434 kts 28°
2026-05-04 07:52 -31.43302 115.48786 22340 ft 437 kts 27°
2026-05-04 07:52 -31.40584 115.50430 22806 ft 440 kts 27°
2026-05-04 07:52 -31.37876 115.52065 23257 ft 442 kts 27°
2026-05-04 07:52 -31.35125 115.53725 23651 ft 446 kts 27°
2026-05-04 07:53 -31.32348 115.55400 24049 ft 448 kts 27°
2026-05-04 07:54 -31.12848 115.67113 24295 ft 453 kts 27°
2026-05-04 07:55 -31.10034 115.68797 24288 ft 453 kts 27°
2026-05-04 07:55 -31.07225 115.70477 24288 ft 453 kts 27°
2026-05-04 07:55 -31.04425 115.72151 24286 ft 452 kts 27°
2026-05-04 07:55 -31.01652 115.73809 24289 ft 451 kts 27°
2026-05-04 07:56 -30.98851 115.75481 24287 ft 451 kts 27°
2026-05-04 07:56 -30.96055 115.77151 24286 ft 450 kts 27°
2026-05-04 07:56 -30.93263 115.78816 24285 ft 450 kts 27°
2026-05-04 07:56 -30.90509 115.80458 24284 ft 449 kts 27°
2026-05-04 07:57 -30.87717 115.82121 24284 ft 449 kts 27°
2026-05-04 07:57 -30.84928 115.83781 24285 ft 449 kts 27°
2026-05-04 07:57 -30.82078 115.85273 24276 ft 448 kts 19°
2026-05-04 07:57 -30.79081 115.86254 24285 ft 448 kts 10°
2026-05-04 07:58 -30.76026 115.86689 24286 ft 447 kts
2026-05-04 07:58 -30.72914 115.86988 24280 ft 447 kts
2026-05-04 07:58 -30.69809 115.87268 24274 ft 447 kts
2026-05-04 07:58 -30.66737 115.87549 24275 ft 447 kts
2026-05-04 07:59 -30.63619 115.87845 24277 ft 447 kts
2026-05-04 07:59 -30.60518 115.88150 24276 ft 447 kts
2026-05-04 07:59 -30.57408 115.88464 24280 ft 447 kts
2026-05-04 07:59 -30.54337 115.88779 24274 ft 447 kts
2026-05-04 08:00 -30.51223 115.89101 24279 ft 447 kts
2026-05-04 08:00 -30.48115 115.89423 24275 ft 447 kts
2026-05-04 08:00 -30.45008 115.89744 24270 ft 447 kts
2026-05-04 08:02 -30.23391 115.91973 24267 ft 444 kts
2026-05-04 08:02 -30.20302 115.92290 24259 ft 443 kts
2026-05-04 08:02 -30.17257 115.92603 24261 ft 443 kts
2026-05-04 08:03 -30.14172 115.92919 24260 ft 442 kts
2026-05-04 08:03 -30.11143 115.93230 24261 ft 441 kts
2026-05-04 08:03 -30.08077 115.93544 24255 ft 441 kts
2026-05-04 08:03 -30.05016 115.93858 24259 ft 440 kts
2026-05-04 08:04 -30.01952 115.94171 24263 ft 440 kts
2026-05-04 08:04 -29.98920 115.94482 24260 ft 440 kts
2026-05-04 08:04 -29.95855 115.94795 24261 ft 440 kts
2026-05-04 08:04 -29.92795 115.95108 24262 ft 441 kts
2026-05-04 08:05 -29.89772 115.95417 24252 ft 441 kts
2026-05-04 08:05 -29.86708 115.95729 24250 ft 441 kts
2026-05-04 08:05 -29.83637 115.96042 24252 ft 441 kts
2026-05-04 08:05 -29.80611 115.96351 24250 ft 441 kts
2026-05-04 08:06 -29.77546 115.96662 24248 ft 441 kts
2026-05-04 08:06 -29.74477 115.96975 24246 ft 440 kts
2026-05-04 08:06 -29.71462 115.97282 24251 ft 440 kts
2026-05-04 08:06 -29.68408 115.97593 24249 ft 440 kts
2026-05-04 08:08 -29.47135 115.99750 24238 ft 438 kts
2026-05-04 08:08 -29.44089 116.00059 24238 ft 438 kts
2026-05-04 08:10 -29.19833 116.02612 24227 ft 438 kts 10°
2026-05-04 08:11 -29.16853 116.03382 24240 ft 438 kts 13°
2026-05-04 08:11 -29.10918 116.05125 24229 ft 438 kts 14°
2026-05-04 08:11 -29.07993 116.05993 24231 ft 438 kts 13°
2026-05-04 08:12 -29.05033 116.06860 24228 ft 438 kts 13°
2026-05-04 08:12 -29.02072 116.07714 24228 ft 438 kts 13°
2026-05-04 08:12 -28.99154 116.08547 24224 ft 438 kts 13°
2026-05-04 08:12 -28.96192 116.09387 24222 ft 437 kts 13°
2026-05-04 08:13 -28.93234 116.10222 24224 ft 437 kts 13°
2026-05-04 08:13 -28.90270 116.11058 24224 ft 437 kts 13°
2026-05-04 08:13 -28.87348 116.11880 24225 ft 437 kts 13°
2026-05-04 08:13 -28.84392 116.12711 24224 ft 437 kts 13°
2026-05-04 08:14 -28.81439 116.13541 24222 ft 437 kts 13°
2026-05-04 08:14 -28.78475 116.14374 24271 ft 439 kts 13°
2026-05-04 08:14 -28.75471 116.15219 24625 ft 441 kts 12°
2026-05-04 08:16 -28.54386 116.21130 27170 ft 453 kts 12°
2026-05-04 08:16 -28.51317 116.21989 27475 ft 456 kts 12°
2026-05-04 08:16 -28.48222 116.22854 27771 ft 458 kts 12°
2026-05-04 08:17 -28.45149 116.23713 28065 ft 461 kts 12°
2026-05-04 08:17 -28.42022 116.24586 28374 ft 463 kts 12°
2026-05-04 08:17 -28.38876 116.25464 28664 ft 465 kts 12°
2026-05-04 08:17 -28.35720 116.26344 28942 ft 467 kts 12°
2026-05-04 08:19 -28.13451 116.32541 30959 ft 475 kts 10°
2026-05-04 08:19 -28.10219 116.33437 31166 ft 477 kts 10°
2026-05-04 08:20 -28.06990 116.34332 31447 ft 477 kts 10°
2026-05-04 08:20 -28.03768 116.35226 31714 ft 477 kts 10°
2026-05-04 08:20 -28.00520 116.36126 31936 ft 479 kts
2026-05-04 08:20 -27.97316 116.37013 32156 ft 480 kts
2026-05-04 08:21 -27.94064 116.37912 32405 ft 481 kts
2026-05-04 08:21 -27.90802 116.38815 32651 ft 482 kts
2026-05-04 08:21 -27.87528 116.39720 32865 ft 483 kts
2026-05-04 08:21 -27.84255 116.40624 33082 ft 484 kts
2026-05-04 08:22 -27.81015 116.41519 33337 ft 485 kts
2026-05-04 08:22 -27.77732 116.42425 33582 ft 485 kts
2026-05-04 08:24 -27.54679 116.48763 35049 ft 489 kts
2026-05-04 08:24 -27.51363 116.49672 35192 ft 490 kts
2026-05-04 08:24 -27.44693 116.51499 35187 ft 492 kts
2026-05-04 08:25 -27.38082 116.53312 35178 ft 489 kts
2026-05-04 08:25 -27.31479 116.55120 35176 ft 487 kts
2026-05-04 08:27 -27.06301 116.61980 35179 ft 488 kts
2026-05-04 08:28 -26.99667 116.63783 35172 ft 491 kts
2026-05-04 08:28 -26.93004 116.65592 35176 ft 493 kts
2026-05-04 08:29 -26.86348 116.67397 35170 ft 495 kts
2026-05-04 08:31 -26.59389 116.74688 35167 ft 500 kts
2026-05-04 08:33 -26.32386 116.81953 35154 ft 498 kts
2026-05-04 08:35 -26.05437 116.89170 35148 ft 497 kts
2026-05-04 08:35 -25.98702 116.90969 35144 ft 497 kts
2026-05-04 08:37 -25.75126 116.97247 35141 ft 499 kts
2026-05-04 08:38 -25.68408 116.99031 35141 ft 499 kts
2026-05-04 08:38 -25.61622 117.00831 35140 ft 500 kts
2026-05-04 08:40 -25.36061 117.07594 35131 ft 502 kts
2026-05-04 08:41 -25.29304 117.09377 35128 ft 502 kts
2026-05-04 08:41 -25.22487 117.11174 35123 ft 502 kts
2026-05-04 08:42 -25.15714 117.12957 35131 ft 502 kts
2026-05-04 08:42 -25.08901 117.14749 35123 ft 502 kts
2026-05-04 08:43 -25.02126 117.16528 35124 ft 502 kts
2026-05-04 08:43 -24.95298 117.18319 35118 ft 503 kts
2026-05-04 08:44 -24.88530 117.20093 35117 ft 503 kts
2026-05-04 08:46 -24.61292 117.27211 35108 ft 504 kts
2026-05-04 08:46 -24.54464 117.28991 35106 ft 504 kts
2026-05-04 08:47 -24.47627 117.30772 35104 ft 504 kts
2026-05-04 08:47 -24.40841 117.32535 35110 ft 504 kts
2026-05-04 08:48 -24.33985 117.34311 35101 ft 504 kts
2026-05-04 08:48 -24.27182 117.36072 35101 ft 504 kts
2026-05-04 08:49 -24.20367 117.37836 35098 ft 505 kts
2026-05-04 08:50 -23.96396 117.44025 35095 ft 506 kts
2026-05-04 08:51 -23.89524 117.45795 35089 ft 507 kts
2026-05-04 08:51 -23.82675 117.47557 35084 ft 507 kts
2026-05-04 08:52 -23.75794 117.49326 35076 ft 507 kts
2026-05-04 08:52 -23.68944 117.51084 35078 ft 508 kts
2026-05-04 08:54 -23.41382 117.58141 35071 ft 509 kts
2026-05-04 08:55 -23.34505 117.59898 35070 ft 509 kts
2026-05-04 08:55 -23.27586 117.61663 35074 ft 509 kts
2026-05-04 09:01 -22.55018 117.80059 34844 ft 514 kts
2026-05-04 09:01 -22.51582 117.80925 34609 ft 512 kts
2026-05-04 09:01 -22.48120 117.81799 34383 ft 511 kts
2026-05-04 09:01 -22.44641 117.82676 34165 ft 512 kts
2026-05-04 09:02 -22.41169 117.83549 33916 ft 512 kts
2026-05-04 09:02 -22.37692 117.84423 33659 ft 512 kts
2026-05-04 09:02 -22.34258 117.85286 33411 ft 512 kts
2026-05-04 09:02 -22.30785 117.86158 33157 ft 512 kts
2026-05-04 09:03 -22.27319 117.87031 32870 ft 506 kts
2026-05-04 09:03 -22.23905 117.87894 32349 ft 502 kts
2026-05-04 09:03 -22.20502 117.88749 31730 ft 501 kts
2026-05-04 09:03 -22.17113 117.89598 31215 ft 498 kts
2026-05-04 09:04 -22.13787 117.90433 30837 ft 491 kts
2026-05-04 09:04 -22.10465 117.91266 30455 ft 485 kts
2026-05-04 09:04 -22.07186 117.92089 30129 ft 477 kts
2026-05-04 09:04 -22.04061 117.92877 30030 ft 456 kts
2026-05-04 09:05 -22.01018 117.93647 29761 ft 442 kts
2026-05-04 09:05 -21.98030 117.94394 29340 ft 438 kts
2026-05-04 09:05 -21.95066 117.95129 28860 ft 436 kts
2026-05-04 09:05 -21.92157 117.95850 28409 ft 433 kts
2026-05-04 09:06 -21.89207 117.96583 27979 ft 430 kts
2026-05-04 09:07 -21.69262 118.01552 25244 ft 412 kts
2026-05-04 09:08 -21.66475 118.02245 24869 ft 410 kts
2026-05-04 09:08 -21.63699 118.02936 24511 ft 407 kts
2026-05-04 09:08 -21.60953 118.03620 24186 ft 404 kts
2026-05-04 09:08 -21.58211 118.04301 23845 ft 402 kts
2026-05-04 09:09 -21.55492 118.04977 23479 ft 399 kts
2026-05-04 09:09 -21.52825 118.05639 23085 ft 396 kts
2026-05-04 09:09 -21.50139 118.06307 22700 ft 393 kts
2026-05-04 09:09 -21.47484 118.06966 22371 ft 389 kts
2026-05-04 09:10 -21.44851 118.07619 22007 ft 386 kts
2026-05-04 09:10 -21.42266 118.08270 21641 ft 383 kts 11°
2026-05-04 09:10 -21.39739 118.09229 21276 ft 385 kts 22°
2026-05-04 09:10 -21.37368 118.10462 20954 ft 381 kts 23°
2026-05-04 09:11 -21.34972 118.11737 20631 ft 377 kts 24°
2026-05-04 09:11 -21.32656 118.12973 20300 ft 374 kts 24°
2026-05-04 09:11 -21.30323 118.14213 19968 ft 371 kts 24°
2026-05-04 09:11 -21.28011 118.15434 19648 ft 368 kts 24°
2026-05-04 09:12 -21.25738 118.16630 19339 ft 365 kts 24°
2026-05-04 09:12 -21.23460 118.17825 19018 ft 362 kts 24°
2026-05-04 09:14 -21.08651 118.25557 16645 ft 348 kts 25°
2026-05-04 09:14 -21.05766 118.27060 16150 ft 346 kts 24°
2026-05-04 09:14 -21.04332 118.27808 15913 ft 346 kts 24°
2026-05-04 09:14 -21.02174 118.28932 15564 ft 344 kts 24°
2026-05-04 09:15 -21.00018 118.30054 15218 ft 342 kts 24°
2026-05-04 09:15 -20.97878 118.31168 14876 ft 340 kts 24°
2026-05-04 09:15 -20.95774 118.32263 14553 ft 338 kts 24°
2026-05-04 09:15 -20.93658 118.33363 14232 ft 336 kts 24°
2026-05-04 09:17 -20.77129 118.41949 11455 ft 324 kts 25°
2026-05-04 09:18 -20.75090 118.43007 11095 ft 324 kts 25°
2026-05-04 09:18 -20.73057 118.44061 10775 ft 322 kts 25°
2026-05-04 09:18 -20.71070 118.45092 10455 ft 321 kts 25°
2026-05-04 09:18 -20.69058 118.46134 10141 ft 319 kts 25°
2026-05-04 09:19 -20.67062 118.47168 9831 ft 317 kts 25°
2026-05-04 09:19 -20.65072 118.48199 9493 ft 315 kts 26°
2026-05-04 09:19 -20.63117 118.49211 9105 ft 316 kts 26°
2026-05-04 09:19 -20.61142 118.50234 8810 ft 313 kts 26°
2026-05-04 09:20 -20.59183 118.51247 8504 ft 311 kts 26°
2026-05-04 09:20 -20.57266 118.52240 8188 ft 309 kts 26°
2026-05-04 09:20 -20.55331 118.53240 7897 ft 307 kts 27°
2026-05-04 09:20 -20.53406 118.54236 7572 ft 305 kts 27°
2026-05-04 09:21 -20.51520 118.55212 7286 ft 303 kts 27°
2026-05-04 09:21 -20.49620 118.56194 7005 ft 301 kts 27°
2026-05-04 09:21 -20.47742 118.57164 6723 ft 299 kts 27°
2026-05-04 09:21 -20.45873 118.58129 6427 ft 297 kts 27°
2026-05-04 09:22 -20.44038 118.59078 6138 ft 295 kts 28°
2026-05-04 09:22 -20.42196 118.60028 5821 ft 293 kts 28°
2026-05-04 09:22 -20.40373 118.60968 5698 ft 281 kts 28°
2026-05-04 09:22 -20.38665 118.61848 5653 ft 263 kts 28°
2026-05-04 09:23 -20.37032 118.62593 5589 ft 251 kts 14°
2026-05-04 09:23 -20.35329 118.62573 5419 ft 250 kts 345°
2026-05-04 09:23 -20.33809 118.61706 5265 ft 249 kts 317°
2026-05-04 09:23 -20.32812 118.60233 5088 ft 245 kts 289°
2026-05-04 09:25 -20.39988 118.54602 3933 ft 222 kts 162°
2026-05-04 09:25 -20.41473 118.55066 3758 ft 223 kts 161°
2026-05-04 09:26 -20.42956 118.55532 3586 ft 221 kts 161°
2026-05-04 09:26 -20.44432 118.55989 3354 ft 220 kts 161°
2026-05-04 09:26 -20.45567 118.56336 3206 ft 219 kts 161°
2026-05-04 09:26 -20.47028 118.56788 2961 ft 218 kts 158°
2026-05-04 09:27 -20.48290 118.57628 2742 ft 212 kts 134°
2026-05-04 09:27 -20.49135 118.58887 2563 ft 209 kts 114°
2026-05-04 09:27 -20.49485 118.60381 2350 ft 210 kts 93°
2026-05-04 09:27 -20.49262 118.61932 2175 ft 215 kts 72°
2026-05-04 09:28 -20.48457 118.63288 1980 ft 221 kts 47°
2026-05-04 09:28 -20.47173 118.64181 1872 ft 229 kts 24°
2026-05-04 09:28 -20.45603 118.64517 1830 ft 233 kts
2026-05-04 09:28 -20.44020 118.64231 1805 ft 228 kts 348°
2026-05-04 09:29 -20.42489 118.63766 1801 ft 229 kts 346°
2026-05-04 09:29 -20.40962 118.63287 1803 ft 229 kts 346°
2026-05-04 09:29 -20.39416 118.62807 1801 ft 233 kts 345°
2026-05-04 09:29 -20.37856 118.62288 1803 ft 237 kts 346°
2026-05-04 09:30 -20.36270 118.61806 1799 ft 237 kts 346°
2026-05-04 09:30 -20.34693 118.61320 1771 ft 234 kts 347°
2026-05-04 09:30 -20.33146 118.60843 1751 ft 229 kts 346°
2026-05-04 09:30 -20.31668 118.60379 1727 ft 214 kts 347°
2026-05-04 09:31 -20.30269 118.59937 1678 ft 206 kts 348°
2026-05-04 09:31 -20.28884 118.59527 1696 ft 207 kts 347°
2026-05-04 09:31 -20.27505 118.59115 1728 ft 205 kts 348°
2026-05-04 09:31 -20.26127 118.58710 1683 ft 207 kts 347°
2026-05-04 09:32 -20.24769 118.58172 1589 ft 210 kts 327°
2026-05-04 09:32 -20.23856 118.57006 1577 ft 206 kts 291°
2026-05-04 09:34 -20.30100 118.55039 1424 ft 181 kts 139°
2026-05-04 09:34 -20.31026 118.55838 1334 ft 163 kts 139°
2026-05-04 09:34 -20.31816 118.56606 1222 ft 151 kts 131°
2026-05-04 09:34 -20.32519 118.57405 1239 ft 147 kts 131°
2026-05-04 09:35 -20.33205 118.58055 1122 ft 152 kts 136°
2026-05-04 09:35 -20.33516 118.58342 1073 ft 151 kts 136°
2026-05-04 09:35 -20.34301 118.59090 921 ft 149 kts 134°
2026-05-04 09:35 -20.35055 118.59830 718 ft 148 kts 135°
2026-05-04 09:37 -20.38885 118.63599 32 ft 29 kts 137°
2026-05-04 09:37 -20.39034 118.63728 33 ft 19 kts 143°
2026-05-04 09:38 -20.39043 118.63756 31 ft 2 kts 14°
2026-05-04 09:38 -20.39014 118.63731 31 ft 12 kts 315°
2026-05-04 09:38 -20.38919 118.63634 32 ft 25 kts 317°
2026-05-04 09:38 -20.38769 118.63488 34 ft 31 kts 317°
2026-05-04 09:39 -20.38611 118.63333 33 ft 30 kts 317°
2026-05-04 09:39 -20.38465 118.63190 33 ft 27 kts 317°
2026-05-04 09:39 -20.38341 118.63068 34 ft 23 kts 317°
2026-05-04 09:39 -20.38226 118.62955 32 ft 22 kts 317°
2026-05-04 09:40 -20.38115 118.62849 32 ft 21 kts 331°
2026-05-04 09:40 -20.38048 118.62886 32 ft 10 kts 50°
2026-05-04 09:40 -20.38002 118.62940 32 ft 10 kts 44°
2026-05-04 09:40 -20.37963 118.62998 32 ft 10 kts 60°
2026-05-04 09:41 -20.37924 118.63054 32 ft 9 kts 53°
2026-05-04 09:42 -20.37864 118.63148 30 ft 0 kts 47°